Weather History for Kinloss, United Kingdom

Change the Weather History Date:

Tuesday, September 24, 2013

  Actual Average Record
Temperature  
Mean Temperature 56 °F -  
Max Temperature 61 °F 56 °F 66 °F (1997)
Min Temperature 50 °F 44 °F 37 °F (2012)
Degree Days  
Heating Degree Days 10    
Growing Degree Days 6 (Base 50)    
Moisture  
Dew Point 53 °F    
Average Humidity 89    
Maximum Humidity 96    
Minimum Humidity 77    
Precipitation  
Precipitation 0.16 in 0.07 in - ()
Sea Level Pressure  
Sea Level Pressure 30.03 in    
Wind  
Wind Speed 6 mph ()    
Max Wind Speed 16 mph    
Max Gust Speed -    
Visibility 7.0 miles    
Events Rain    
Averages and records for this station are not official NWS values.
T = Trace of Precipitation, MM = Missing Value Source: Averaged Metar Reports

Daily Weather History Graph

Daily Weather History Graph

Search for Another Location

Airport:

Trip Planner

Search our weather history database for the weather conditions in past years. The results will help you decide how hot, cold, wet, or windy it might be!

Date:

Astronomy

Sep. 24, 2013 Rise Set
Actual Time 7:03 AM BST 7:07 PM BST
Civil Twilight 6:24 AM BST 7:46 PM BST
Nautical Twilight 5:38 AM BST 8:32 PM BST
Astronomical Twilight 4:49 AM BST 9:21 PM BST
Moon 9:08 PM BST (9/24) 1:09 PM BST (9/24)
Length of Visible Light 13h 21m
Length of Day
12h 04m
Waning Gibbous, 75% of the Moon is Illuminated
Sep 24
Waning Gibbous
Sep 27
Last Quarter
Oct 5
New
Oct 12
First Quarter
Oct 19
Full

Hourly Weather History & Observations

Time (BST) Temp. Dew Point Humidity Pressure Visibility Wind Dir Wind Speed Gust Speed Precip Events Conditions
12:50 AM 55 °F 53 °F 92% 30.12 in 19 mi SW 5.8 mph - -   Overcast
12:50 AM 55.4 °F 53.6 °F 94% 30.09 in 6.2 mi SW 5.8 mph - N/A   Overcast
1:50 AM 55.4 °F 53.6 °F 94% 30.09 in 6.2 mi SW 3.5 mph - N/A   Overcast
2:50 AM 55.4 °F 53.6 °F 94% 30.09 in 6.2 mi WSW 5.8 mph - N/A   Overcast
3:50 AM 55.4 °F 53.6 °F 94% 30.06 in 6.2 mi SW 4.6 mph - N/A   Mostly Cloudy
4:50 AM 55.4 °F 53.6 °F 94% 30.06 in 6.2 mi SW 5.8 mph - N/A   Overcast
5:50 AM 55.4 °F 53.6 °F 94% 30.06 in 6.2 mi SW 5.8 mph - N/A   Mostly Cloudy
6:50 AM 55 °F 54 °F 96% 30.07 in 7 mi South 3.5 mph - -  
6:50 AM 55.4 °F 53.6 °F 94% 30.06 in 6.2 mi South 3.5 mph - N/A   Overcast
7:50 AM 55.4 °F 53.6 °F 94% 30.06 in 6.2 mi SSW 5.8 mph - N/A   Mostly Cloudy
8:50 AM 55.4 °F 53.6 °F 94% 30.06 in 6.2 mi South 1.2 mph - N/A   Mostly Cloudy
9:50 AM 56 °F 54 °F 90% 30.07 in 13 mi NE 2.3 mph - -   Mostly Cloudy
9:50 AM 57.2 °F 53.6 °F 88% 30.06 in 6.2 mi NE 2.3 mph - N/A   Mostly Cloudy
10:50 AM 57.2 °F 55.4 °F 94% 30.04 in 6.2 mi East 5.8 mph - N/A   Overcast
11:50 AM 59.0 °F 55.4 °F 88% 30.04 in 6.2 mi ENE 6.9 mph - N/A   Overcast
12:50 PM 59 °F 56 °F 87% 30.04 in 12 mi ENE 10.4 mph - -   Scattered Clouds
12:50 PM 59.0 °F 55.4 °F 88% 30.04 in 6.2 mi ENE 10.4 mph - N/A   Mostly Cloudy
1:50 PM 59.0 °F 55.4 °F 88% 30.01 in 6.2 mi East 12.7 mph - N/A   Mostly Cloudy
2:50 PM 60.8 °F 55.4 °F 82% 30.01 in 6.2 mi ENE 12.7 mph - N/A   Mostly Cloudy
3:50 PM 60 °F 55 °F 77% 30.00 in 22 mi East 15.0 mph - -   Mostly Cloudy
3:50 PM 60.8 °F 55.4 °F 82% 29.98 in 6.2 mi East 15.0 mph - N/A   Mostly Cloudy
4:50 PM 59.0 °F 53.6 °F 82% 29.98 in 6.2 mi East 13.8 mph - N/A   Overcast
5:50 PM 57.2 °F 53.6 °F 88% 29.98 in 6.2 mi East 16.1 mph - N/A   Overcast
6:50 PM 56 °F 52 °F 83% 29.99 in 31 mi East 11.5 mph - -   Mostly Cloudy
6:50 PM 55.4 °F 51.8 °F 88% 29.98 in 6.2 mi East 11.5 mph - N/A   Mostly Cloudy
7:50 PM 55.4 °F 51.8 °F 88% 29.98 in 6.2 mi East 12.7 mph - N/A   Overcast
8:50 PM 53.6 °F 50.0 °F 88% 29.98 in 6.2 mi ENE 10.4 mph - N/A   Overcast
9:50 PM 54 °F 50 °F 83% 29.99 in 40 mi East 9.2 mph - -   Overcast
9:50 PM 53.6 °F 50.0 °F 88% 29.98 in 6.2 mi East 9.2 mph - N/A   Overcast
10:50 PM 53.6 °F 51.8 °F 94% 29.98 in 6.2 mi East 9.2 mph - N/A Rain Rain Showers
11:50 PM 53.6 °F 51.8 °F 94% 29.98 in 2.2 mi East 10.4 mph - N/A Rain Rain